Location: Lake Crest
(37.6062°N, 88.9176°W)
Time: 22:35:27
(UTC+00:00)

STARLINK-25 - Pass Details

Date: 15 December 2019
Orbit: 528 x 531 km, 53.0° (Epoch: 22 January)

Event Time Altitude Azimuth Distance (km) Brightness Sun altitude
Rises 00:20:59 0° 217° (SW) 2,671 7.9 -19.7°
Reaches altitude 10° 00:23:12 10° 213° (SSW) 1,789 6.9 -20.1°
Maximum altitude 00:27:11 58° 134° (SE) 634 3.7 -20.9°
Enters shadow 00:27:20 58° 123° (ESE) 637 3.6 -20.9°
